Showing default

TANSTAAFL-2, 62378

Orbit data source: Space-Track

TANSTAAFL-2, 62378 is a payload satellite owned by True Anomaly (US) in LEO that was launched on Sat, 21 Dec 2024 UTC via an FALCON 9 launch vehicle from the Air Force Western Test Range (AFWTR). Payload-class satellites include a variety of spacecraft equipped with specific instruments for various scientific and technological missions. These include communications satellites like Starlink; space stations such as the ISS; scientific satellites like the Hubble; Earth observation satellites from companies like Planet Labs, Umbra, and HawkEye 360; GPS; miniature CubeSats for education and research; and military/defense satellites.

Loading next visibility...
Identifier
62378, 2024-247B
Orbit
LEO
Country
Flag of USUS
Related business
Manufacturer
True Anomaly
Mission
Operational Commercial Technology
Bus & Motor
JACKAL, Unknown motor
Mass
275 kg wet, 275 kg dry
Launch date (UTC)
2024-12-21 (1 year ago)
Launch vehicle
FALCON 9
Launch site
Air Force Western Test Range (AFWTR)
Object type
Payload
Rocket body
Debris
Shape & HBR
Box + 2 Pan, 2.3 m
Radar Cross Section
1.240 m², Large (>1 m²)

Expand to show TLE details & history
Last TLE update: 13 hours ago

TLE from 13 hours ago
0 TANSTAAFL-2
1 62378U 24247B   25345.06995047  .00013555  00000-0  52720-3 0  9992
2 62378  44.9836 240.4702 0000169 321.0228  39.0642 15.26025961 54184
Epoch: 2025-12-11T01:40Z
TLE epoch observation values (Epoch: 2025-12-11T01:40:43.720Z)
Latitude
-0.00002°
Longitude
135.2568°
Altitude
487.613 km
Speed
7.623 km/s
True Right ascension
16h 01m 52s
True Declination
0° 00' 00"
Sunlit
Object was in daylight at epoch
Visualization orbit readout
Latitude
Unknown
Longitude
Unknown
Altitude
Unknown
Speed
Unknown
Apparent Right ascension
Unknown
Apparent Declination
Unknown
Sunlit
N/A
Visualization observer readout
Local Sidereal Time
12:57:15
Azimuth
Unknown
Elevation
Unknown
Doppler factor
Unknown
Orbital elements
Apogee altitude
489.433 km
Perigee altitude
489.201 km
Semi-major axis
6,867.454 km
Eccentricity
0.00002
Inclination
44.9836°
RAAN
240.4702°
Arg. of periapsis
321.0228°
True anomaly
39.06542°
Mean anomaly
39.0642°
Eccentric anomaly
39.06481°
Mean motion
3.81373 °/min
Orbital period
94.4 mins
BSTAR
0.0005272
Loading maneuver chart data...
Computing Atmospheric mass density...
Loading historical data...
Loading historical data...
Loading historical data...
Loading historical data...
Loading historical data...
Loading historical data...
Loading historical data...

Documentation

Showing up to 5 results
|